Lexington Weather

Lexington, Massachusetts, USA

47°F
10/22/2019 2:31am 
  • Lexington Conditions: Mostly cloudy
  • Temperature: 46.6°F / 8.1°CWarmer 1.3°F than last hour.
  • Dew Point: 45.0°FIncreased 1.8°Fsince last hour.
  • Relative Humidity: 94%Increased 2.0% since last hour.
  • Wind: Calm, 10-min avg: Calm, gust: None
  • Barometer: 30.12 in Steady
  • Visibility: 9 miles
  • Rain Today: 0.00 in
  •   

Regional Weather Roundup
for Boston, MA

        
000
ASUS41 KBOX 211600
RWRBOX

REGIONAL WEATHER ROUNDUP
NATIONAL WEATHER SERVICE BOSTON/NORTON MA
1200 PM EDT MON OCT 21 2019

NOTE:  "FAIR" INDICATES FEW OR NO CLOUDS BELOW 12,000 FEET WITH NO 
SIGNIFICANT WEATHER AND/OR OBSTRUCTIONS TO VISIBILITY.

MAZALL-211700-
EASTERN MASSACHUSETTS
  
CITY           SKY/WX    TMP DP  RH WIND       PRES   REMARKS
BOSTON         FAIR      62  48  60 NE12      30.11R                  
BEVERLY        FAIR      58  48  69 NE9       30.11R                  
LAWRENCE       FAIR      62  47  57 NE9       30.13R                  
BEDFORD        FAIR      65  46  50 NE10      30.10R                  
BLUE HILL        N/A     58  48  69 NE10G20   30.08                   
NORWOOD        FAIR      64  49  57 NE10      30.09R                  
MARSHFIELD     NOT AVBL                                               
PLYMOUTH       PTSUNNY   57  49  74 NE16      30.09R                  
TAUNTON        FAIR      63  46  54 N9G20     30.07R                  
NEW BEDFORD    FAIR      62  46  55 NE17G24   30.05R                  
$$

MAZALL-211700-
CAPE COD AND THE ISLANDS
  
CITY           SKY/WX    TMP DP  RH WIND       PRES   REMARKS
FALMOUTH       CLOUDY    57  50  77 NE16G24   30.06R                  
HYANNIS        NOT AVBL                                               
CHATHAM        NOT AVBL                                               
PROVINCETOWN   FAIR      59  51  75 NE13G20     N/A                   
NANTUCKET      CLOUDY    58  53  84 NE21G28   30.01R                  
MARTHAS VNYRD  CLOUDY    60  50  69 N15       30.04R                  
$$
 
MAZALL-211700-
CENTRAL AND WESTERN MASSACHUSETTS
  
CITY           SKY/WX    TMP DP  RH WIND       PRES   REMARKS
WORCESTER      FAIR      56  44  64 NE10      30.10R                  
FITCHBURG      FAIR      60  46  59 N7        30.12R                  
ORANGE         FAIR      57  46  66 NW10      30.12S                  
SPRINGFIELD    MOSUNNY   57  47  69 NW7       30.09F                  
WESTFIELD      FAIR      59  45  59 NE12      30.10F                  
NORTH ADAMS    FAIR      53  45  74 W5        30.11F                  
PITTSFIELD     FAIR      58  45  62 VRB3      30.09F                  
$$
 
RIZALL-211700-
RHODE ISLAND
  
CITY           SKY/WX    TMP DP  RH WIND       PRES   REMARKS
PROVIDENCE     FAIR      63  47  55 NE16      30.07S                  
NEWPORT        FAIR      63  48  58 N18       30.05R                  
BLOCK ISLAND   CLOUDY    59  51  75 NE15      30.05R                  
SMITHFIELD     FAIR     N/A N/A N/A NE16      30.08S                  
WESTERLY       FAIR      64  52  64 N12G20    30.05S                  
$$
 
CTZALL-211700-
CONNECTICUT
  
CITY           SKY/WX    TMP DP  RH WIND       PRES   REMARKS
BRADLEY INTL   FAIR      62  46  55 N14       30.09S                  
HARTFORD       FAIR      58  48  69 N12       30.09R                  
BRIDGEPORT     FAIR      64  43  46 N14       30.07R                  
DANBURY        FAIR      62  44  51 N9        30.09S                  
GROTON         NOT AVBL                                               
NEW HAVEN      FAIR      63  48  58 N16       30.07R                  
CHESTER        FAIR      63  43  48 N13       30.06S                  
MERIDEN        FAIR      61  46  57 N13       30.08S                  
WILLIMANTIC    FAIR      62  45  53 NE9       30.09R                  
OXFORD         FAIR      60  44  55 NE14G21   30.08S                  
$$

MEZ002-015-021-024-NHZ003-005-008-011-012-014-VTZ005-008-211700-
NORTHERN NEW ENGLAND
  
CITY           SKY/WX    TMP DP  RH WIND       PRES   REMARKS
PORTLAND ME    FAIR      60  45  57 VRB6      30.13S                  
BANGOR ME      FAIR      58  46  64 CALM      30.12S                  
CONCORD NH     CLOUDY    47  45  93 NW7       30.15R                  
MANCHESTER NH  FAIR      56  47  71 N8        30.12R                  
NASHUA NH      FAIR      57  49  74 N5        30.14R                  
PORTSMOUTH NH  MOSUNNY   61  45  54 N8        30.10R                  
JAFFREY NH     FAIR      56  47  71 VRB3      30.12S                  
KEENE NH       CLOUDY    49  47  93 S3        30.14S                  
BURLINGTON VT  FAIR      56  46  69 NW5       30.15F                  
MT. WASHINGTON MOSUNNY   39  18  41 N15         N/A  WCI  31          
$$

NYZ052-076-211700-
EASTERN NEW YORK
  
CITY           SKY/WX    TMP DP  RH WIND       PRES   REMARKS
ALBANY         CLOUDY    50  46  86 N3        30.16S FOG              
NEW YORK CITY  FAIR      62  45  53 NE13      30.06S                  
$$
 
ANZALL-211700-
MARINE OBSERVATIONS
  
STATION/POSITION TIME  TEMP    WIND        PRES    VSBY  WAVE
                       AIR SEA DIR/SP/G                  HT/PER
                 (UTC) (F)     (DEG/KT/KT) (MB)    (MI)  (FT/S)
BOSTON BUOY      1450   56 57   40/ 14/ 16 1017.6          2/ 3
BUZZARDS BAY     1500   57      40/ 22/ 24 1017.0S
NANTUCKET SOUND  1520      56              1017.0
MASS BAY-STELLWA 1504   55 56   30/ 14/ 16 1018.3S  1 7/8  2/ 3
ISLE OF SHOALS   1500   52      30/ 15/ 16 1018.7F
S OF BLOCK IS    1530      60                N/A           8/ 7
$$

......................KEY.........................
  SKY/WX - SKY CONDITION/PRESENT WEATHER
  TMP    - TEMPERATURE IN FAHRENHEIT
  DWPT   - DEWPOINT IN FAHRENHEIT
  RH     - RELATIVE HUMIDITY IN PERCENT
  WIND   - DIRECTION AND SPEED IN MPH
  PRES   - MEAN SEA LEVEL PRESSURE IN INCHES OF HG
  WCI    - WIND CHILL INDEX
  VSB    - VISIBILITY IN MILES
  HX     - HEAT INDEX
  TC     - TEMPERATURE IN CELSIUS
  VRB    - VARIABLE WIND DIRECTION
  N/A    - NOT AVAILABLE
  
      

Other recent Regional Weather Roundups

Tue Oct 22, 2:10am

Tue Oct 22, 2:00am

Tue Oct 22, 1:10am

Tue Oct 22, 1:00am

Tue Oct 22, 12:10am

Tue Oct 22, 12:00am

Mon Oct 21, 11:10pm

Mon Oct 21, 11:00pm

Mon Oct 21, 10:10pm

Mon Oct 21, 10:01pm

Mon Oct 21, 9:10pm

Mon Oct 21, 9:00pm

Mon Oct 21, 8:10pm

Mon Oct 21, 8:00pm

Mon Oct 21, 7:10pm

Mon Oct 21, 7:01pm

Mon Oct 21, 6:10pm

Mon Oct 21, 6:01pm

Mon Oct 21, 5:10pm

Mon Oct 21, 5:01pm

Mon Oct 21, 4:10pm

Mon Oct 21, 4:00pm

Mon Oct 21, 3:10pm

Mon Oct 21, 3:01pm

Mon Oct 21, 2:10pm

Mon Oct 21, 2:00pm

Mon Oct 21, 1:10pm

Mon Oct 21, 1:01pm

Mon Oct 21, 12:10pm

Mon Oct 21, 11:10am

Mon Oct 21, 11:00am

Mon Oct 21, 10:10am

Mon Oct 21, 10:00am

Mon Oct 21, 9:10am

Mon Oct 21, 9:00am

Mon Oct 21, 7:10am

Mon Oct 21, 7:00am

Mon Oct 21, 6:10am

Mon Oct 21, 6:00am

Mon Oct 21, 5:10am

Mon Oct 21, 5:00am

Mon Oct 21, 4:10am

Mon Oct 21, 4:00am

Mon Oct 21, 3:10am

Mon Oct 21, 3:00am

Mon Oct 21, 2:10am

Mon Oct 21, 2:01am

Mon Oct 21, 1:10am

Mon Oct 21, 1:00am

Mon Oct 21, 12:10am

Mon Oct 21, 12:00am

Sun Oct 20, 11:10pm

Sun Oct 20, 11:00pm

Sun Oct 20, 10:10pm

Sun Oct 20, 10:00pm

Sun Oct 20, 9:10pm

Sun Oct 20, 9:01pm

Sun Oct 20, 8:10pm

Sun Oct 20, 8:00pm

Sun Oct 20, 7:10pm

Sun Oct 20, 7:01pm

Sun Oct 20, 6:10pm

Sun Oct 20, 6:00pm

Sun Oct 20, 5:10pm

Sun Oct 20, 5:00pm

Sun Oct 20, 4:10pm

Sun Oct 20, 4:00pm

Sun Oct 20, 3:10pm

Sun Oct 20, 3:00pm

Sun Oct 20, 2:10pm

Sun Oct 20, 2:01pm

Sun Oct 20, 1:10pm

Sun Oct 20, 1:01pm

Sun Oct 20, 12:10pm

Sun Oct 20, 12:00pm

Sun Oct 20, 11:10am

Sun Oct 20, 11:00am

Sun Oct 20, 10:10am

Sun Oct 20, 10:00am

Sun Oct 20, 9:10am

Sun Oct 20, 9:00am

Sun Oct 20, 8:10am

Sun Oct 20, 8:00am

Sun Oct 20, 7:10am

Sun Oct 20, 7:00am

Sun Oct 20, 6:10am

Sun Oct 20, 6:00am

Sun Oct 20, 5:10am

Sun Oct 20, 5:00am

Sun Oct 20, 4:10am

Sun Oct 20, 4:00am

Sun Oct 20, 3:10am

Sun Oct 20, 3:00am

Sun Oct 20, 2:10am

Sun Oct 20, 2:00am

Sun Oct 20, 1:10am

Sun Oct 20, 1:00am

Sun Oct 20, 12:10am

Sun Oct 20, 12:00am

Sat Oct 19, 11:10pm

Sat Oct 19, 11:00pm

Sat Oct 19, 10:10pm

Sat Oct 19, 10:00pm

Sat Oct 19, 9:10pm

Sat Oct 19, 9:00pm

Sat Oct 19, 8:10pm

Sat Oct 19, 8:00pm

Sat Oct 19, 7:10pm

Sat Oct 19, 7:00pm

Sat Oct 19, 6:10pm

Sat Oct 19, 6:00pm

Sat Oct 19, 5:10pm

Sat Oct 19, 5:00pm

Sat Oct 19, 4:10pm

Sat Oct 19, 4:00pm

Sat Oct 19, 3:10pm

Sat Oct 19, 3:01pm

Sat Oct 19, 2:10pm

Sat Oct 19, 2:00pm

Sat Oct 19, 1:10pm

Sat Oct 19, 1:01pm

Sat Oct 19, 12:10pm

Sat Oct 19, 12:00pm

Sat Oct 19, 11:10am

Sat Oct 19, 11:01am

Sat Oct 19, 10:10am

Sat Oct 19, 10:00am

Sat Oct 19, 9:10am

Sat Oct 19, 9:00am

Sat Oct 19, 8:10am

Sat Oct 19, 8:00am

Sat Oct 19, 7:10am

Sat Oct 19, 7:00am

Sat Oct 19, 6:10am

Sat Oct 19, 6:00am

Sat Oct 19, 5:10am

Sat Oct 19, 5:00am

Sat Oct 19, 4:10am

Sat Oct 19, 4:00am

Sat Oct 19, 3:10am

Sat Oct 19, 3:00am

Meta data:

ID: 9da84cd2-6c5a-421a-9ef2-ede06848f3e9
Link: https://api.weather.gov/products/9da84cd2-6c5a-421a-9ef2-ede06848f3e9